[[{"header":{"parameterUnit":"m.s-1","parameterCategory":2,"la1":30.2991,"la2":30.254,"lo1":-89.0895,"lo2":-89.0444,"dy":0.0017,"dx":0.0017,"nx":28,"ny":28,"refTime":"2025-03-22T21:00:00:Z","depth":"0","parameterNumber":2,"parameterNumberName":"U-component_of_CURRENTS"},"data":[0,0,0,0,0,0,0,0,0,0,0,0,0,0,0,0,0,0,0,0,0,0,0,0,0,0,0,0,0,0,0,0,0,0,0,0,0,0,0,0,0,0,0,0,0,0,0,0,0,0,0,0,0,0,0,0,0,0,-0.1859,-0.1859,0,-0.1799,-0.1798,-0.1797,-0.1754,-0.1754,-0.1754,-0.1754,-0.1608,-0.1604,-0.1601,0,0,0,0,0,0,0,0,0,0,0,0,0,-0.182,-0.1821,-0.1859,-0.1859,-0.1859,-0.1799,-0.1798,-0.1796,-0.1754,-0.1754,-0.1754,-0.1754,-0.161,-0.1605,-0.16,0,0,0,0,0,0,0,0,0,0,0,0,0,-0.1802,-0.1822,-0.1859,-0.1834,-0.1831,-0.1799,-0.1798,-0.1796,-0.1754,-0.1754,-0.1754,-0.1754,-0.1611,-0.1605,-0.16,-0.156,0,0,-0.1581,-0.1579,0,0,0,0,0,0,0,0,-0.1803,-0.1803,-0.1838,-0.1836,-0.1833,-0.1788,-0.173,-0.1714,-0.1754,-0.1779,-0.1754,-0.1755,-0.1663,-0.1653,-0.1636,-0.1553,-0.1547,-0.1581,-0.1577,-0.1575,-0.1573,0,0,0,0,0,0,0,-0.1805,-0.1805,-0.1831,-0.1838,-0.1834,-0.1785,-0.1783,-0.1727,-0.1716,-0.1776,-0.1774,-0.1775,-0.1661,-0.1642,-0.1632,-0.1545,-0.1581,-0.1576,-0.1572,-0.157,-0.1454,-0.1454,0,0,0,0,0,0,-0.1828,-0.1807,-0.1833,-0.1829,-0.1823,-0.1786,-0.1784,-0.1799,-0.1718,-0.1708,-0.1775,-0.1773,-0.1652,-0.1639,-0.1627,-0.1623,-0.1575,-0.1569,-0.1566,-0.1453,-0.1454,-0.1454,0,0,0,0,0,0,-0.1827,-0.1831,-0.1835,-0.1819,-0.1817,-0.1788,-0.1804,-0.1797,-0.1781,-0.1719,-0.1706,-0.1766,-0.1652,-0.1635,-0.159,-0.1615,-0.1566,-0.1561,-0.1453,-0.1453,-0.1454,-0.1585,0,0,0,0,0,0,-0.1827,-0.1832,-0.184,-0.1821,-0.1819,-0.1829,-0.1804,-0.1796,-0.1783,-0.178,-0.1707,-0.1694,-0.1651,-0.16,-0.1584,-0.1606,-0.1556,-0.1452,-0.1453,-0.1454,-0.158,-0.159,-0.1599,0,0,0,0,0,-0.1826,-0.1841,-0.1841,-0.1844,-0.1836,-0.1831,-0.1824,-0.1799,-0.1783,-0.1783,-0.1736,-0.1696,-0.1595,-0.1595,-0.1577,-0.1598,-0.1452,-0.1453,-0.1454,-0.1576,-0.1588,-0.1598,0,0,0,0,0,0,-0.182,-0.1838,-0.1838,-0.1856,-0.1852,-0.1825,-0.1817,-0.1803,-0.1764,-0.1756,-0.1695,-0.1678,-0.1646,-0.1599,-0.1601,-0.1566,-0.1519,-0.1516,-0.1618,-0.1628,-0.1638,-0.1643,-0.1551,0,0,0,0,0,-0.1828,-0.1846,-0.1851,-0.1861,-0.1864,-0.1841,-0.1831,-0.182,-0.179,-0.1773,-0.1727,-0.1675,-0.1635,-0.1615,-0.1562,-0.1541,-0.1554,-0.1543,-0.1552,-0.1561,-0.1552,-0.1646,-0.1665,-0.1458,-0.1458,-0.1458,0,0,-0.1823,-0.1838,-0.1844,-0.1861,-0.185,-0.1855,-0.1834,-0.1829,-0.1829,-0.1761,-0.1735,-0.1694,-0.1631,-0.1613,-0.1596,-0.1581,-0.1625,-0.1562,-0.157,-0.1556,-0.1649,-0.167,-0.1688,-0.1459,-0.1458,-0.1458,0,0,-0.1821,-0.1843,-0.1854,-0.1861,-0.1866,-0.1861,-0.1866,-0.185,-0.1841,-0.1817,-0.1775,-0.1766,-0.168,-0.1674,-0.1651,-0.1677,-0.1664,-0.1646,-0.171,-0.1802,-0.1821,-0.1838,-0.1889,-0.1909,-0.1664,-0.1664,-0.1664,0,-0.1814,-0.1833,-0.1852,-0.1866,-0.1869,-0.187,-0.1875,-0.1872,-0.1842,-0.185,-0.182,-0.1773,-0.1719,-0.1738,-0.1734,-0.1704,-0.1732,-0.168,-0.1821,-0.1838,-0.1853,-0.19,-0.1921,-0.1671,-0.167,-0.1669,-0.1669,0,-0.1817,-0.1834,-0.1841,-0.1867,-0.1878,-0.1881,-0.1897,-0.1906,-0.1896,-0.1899,-0.1912,-0.1871,-0.1848,-0.1841,-0.1778,-0.1854,-0.1831,-0.1822,-0.1807,-0.1883,-0.1926,-0.1946,-0.168,-0.1677,-0.1676,-0.1674,0,0,-0.1786,-0.1834,-0.1833,-0.1847,-0.1878,-0.1886,-0.1915,-0.1945,-0.1981,-0.1976,-0.2028,-0.1977,-0.1975,-0.1946,-0.1913,-0.1984,-0.2104,-0.1937,-0.1939,-0.2011,-0.2287,-0.2057,-0.2056,-0.2132,-0.2136,-0.2139,-0.2279,0,-0.1773,-0.1796,-0.183,-0.1849,-0.1858,-0.1897,-0.1932,-0.197,-0.1997,-0.2054,-0.2076,-0.2089,-0.2013,-0.2014,-0.2074,-0.2082,-0.2158,-0.2064,-0.2178,-0.218,-0.199,-0.2072,-0.192,-0.2011,-0.2297,-0.2301,-0.2303,0,-0.1752,-0.1773,-0.1784,-0.185,-0.1862,-0.1881,-0.1956,-0.1987,-0.2085,-0.2116,-0.2173,-0.2182,-0.2242,-0.2188,-0.2293,-0.2235,-0.2252,-0.2283,-0.229,-0.2037,-0.1986,-0.1976,-0.2035,-0.2018,-0.2333,-0.233,-0.2328,0,-0.1692,-0.1743,-0.1749,-0.1763,-0.1836,-0.186,-0.1902,-0.1995,-0.2038,-0.2158,-0.2206,-0.2302,-0.2323,-0.2405,-0.2375,-0.2364,-0.2502,-0.2514,-0.2345,-0.233,-0.2195,-0.2158,-0.2263,-0.2628,-0.2627,-0.2627,-0.2627,0,-0.1651,-0.1659,-0.172,-0.1717,-0.1755,-0.1821,-0.1883,-0.195,-0.2062,-0.2117,-0.2213,-0.2264,-0.2376,-0.2433,-0.245,-0.241,-0.2563,-0.2357,-0.2356,-0.2228,-0.2194,-0.2159,-0.2183,-0.2632,-0.2631,-0.263,-0.2629,0,-0.1567,-0.1607,-0.1616,-0.1685,-0.1717,-0.173,-0.1843,-0.1892,-0.2005,-0.2084,-0.2118,-0.2255,-0.2296,-0.2371,-0.2493,-0.2452,-0.2428,-0.244,-0.2237,-0.2204,-0.1979,-0.2013,-0.2089,-0.2038,-0.2316,-0.2311,-0.2307,0,-0.1517,-0.151,-0.1567,-0.1573,-0.1596,-0.1651,-0.1696,-0.1832,-0.1882,-0.2044,-0.2066,-0.2152,-0.2155,-0.2229,-0.2191,-0.2203,-0.2252,-0.2085,-0.2017,-0.1935,-0.198,-0.2026,-0.1984,-0.1929,-0.1922,-0.1916,-0.1912,0,-0.1412,-0.143,-0.1435,-0.1458,-0.1485,-0.1544,-0.1613,-0.1653,-0.1796,-0.1867,-0.194,-0.1969,-0.197,-0.1888,-0.1851,-0.1852,-0.1993,-0.196,-0.1989,-0.175,-0.1707,-0.1664,-0.1853,-0.1862,-0.1867,-0.1871,-0.1873,-0.1875,-0.1312,-0.1295,-0.1307,-0.132,-0.1364,-0.1402,-0.1407,-0.1493,-0.1553,-0.1619,-0.1738,-0.1725,-0.1681,-0.157,-0.1556,-0.1443,-0.1575,-0.1446,-0.1523,-0.1599,-0.1446,-0.1453,-0.1363,-0.1365,-0.1367,-0.1368,-0.137,0,-0.1172,-0.1176,-0.1179,-0.119,-0.1197,-0.127,-0.1324,-0.1305,-0.1312,-0.1394,-0.1431,-0.1379,-0.1261,-0.1241,-0.1122,-0.1073,-0.1114,-0.1095,-0.1205,-0.1205,-0.1315,-0.1183,-0.091,-0.091,-0.091,-0.091,-0.091,-0.091,-0.1094,-0.1046,-0.1056,-0.1016,-0.1037,-0.1007,-0.1006,-0.0991,-0.1014,-0.0995,-0.0995,-0.1043,-0.1043,-0.11,-0.1006,-0.0957,-0.1017,-0.0942,-0.1045,-0.1181,-0.1223,-0.1263,-0.1145,-0.087,-0.087,-0.0872,-0.0872,-0.0872]},{"header":{"parameterUnit":"m.s-1","parameterCategory":2,"la1":30.2991,"la2":30.254,"lo1":-89.0895,"lo2":-89.0444,"dy":0.0017,"dx":0.0017,"nx":28,"ny":28,"refTime":"2025-03-22T21:00:00:Z","depth":"0","parameterNumber":3,"parameterNumberName":"V-component_of_CURRENTS"},"data":[0,0,0,0,0,0,0,0,0,0,0,0,0,0,0,0,0,0,0,0,0,0,0,0,0,0,0,0,0,0,0,0,0,0,0,0,0,0,0,0,0,0,0,0,0,0,0,0,0,0,0,0,0,0,0,0,0,0,-0.0038,-0.0037,0,0.0107,0.0109,0.0111,0.0184,0.0184,0.0183,0.0183,0.0346,0.035,0.0355,0,0,0,0,0,0,0,0,0,0,0,0,0,-0.0125,-0.0125,-0.0039,-0.0037,-0.0035,0.0107,0.0109,0.0112,0.0184,0.0184,0.0183,0.0183,0.0344,0.035,0.0355,0,0,0,0,0,0,0,0,0,0,0,0,0,-0.0042,-0.0125,-0.0039,0.0016,0.0022,0.0107,0.0109,0.0112,0.0184,0.0184,0.0183,0.0183,0.0343,0.0349,0.0356,0.0406,0,0,0.0377,0.038,0,0,0,0,0,0,0,0,-0.0047,-0.0039,0.0006,0.0012,0.0019,0.0124,0.0138,0.021,0.0184,0.0125,0.0183,0.0183,0.0272,0.0284,0.0317,0.0414,0.0421,0.0378,0.0382,0.0385,0.0387,0,0,0,0,0,0,0,-0.0053,-0.0044,0.0022,0.0008,0.0016,0.0077,0.0087,0.0153,0.0202,0.0131,0.0135,0.0147,0.0276,0.031,0.0321,0.0423,0.0377,0.0384,0.0388,0.039,0.0574,0.0574,0,0,0,0,0,0,-0.0083,-0.005,0.0018,0.0026,-0.0019,0.0078,0.009,0.0093,0.0201,0.0216,0.0147,0.015,0.0298,0.0313,0.0327,0.0378,0.0385,0.0391,0.0395,0.0573,0.0574,0.0575,0,0,0,0,0,0,-0.0086,-0.0079,0.0012,-0.001,0.0005,0.0078,0.0083,0.0096,0.0129,0.0213,0.0229,0.0164,0.0299,0.0317,0.0386,0.0385,0.0394,0.04,0.0572,0.0573,0.0574,0.049,0,0,0,0,0,0,-0.0089,-0.0081,-0.0084,-0.0013,0.0005,0.0055,0.0083,0.0099,0.0135,0.014,0.0233,0.0248,0.03,0.0376,0.0393,0.0395,0.0406,0.0571,0.0572,0.0574,0.0492,0.0488,0.0485,0,0,0,0,0,-0.0093,-0.0099,-0.0085,-0.0077,-0.0004,0.0055,0.007,0.0124,0.0136,0.0152,0.0215,0.0245,0.0397,0.0382,0.0402,0.0406,0.057,0.0572,0.0574,0.0493,0.0489,0.0485,0,0,0,0,0,0,-0.0135,-0.009,-0.0074,-0.0066,-0.0014,0.0066,0.0085,0.0119,0.0183,0.0186,0.0261,0.0281,0.0342,0.0391,0.0372,0.0465,0.0487,0.0492,0.0419,0.0415,0.0412,0.037,0.0412,0,0,0,0,0,-0.0149,-0.0145,-0.0085,-0.0078,-0.0057,0.0012,0.0043,0.0079,0.0142,0.0169,0.0235,0.0304,0.0367,0.0401,0.0469,0.0521,0.0539,0.0537,0.0533,0.053,0.0512,0.0525,0.0519,0.058,0.058,0.058,0,0,-0.0166,-0.0139,-0.0138,-0.0087,-0.0043,-0.0012,0.0031,0.0071,0.0098,0.0178,0.0235,0.0299,0.0381,0.0439,0.0469,0.0476,0.0527,0.0532,0.0528,0.0512,0.0525,0.0519,0.0513,0.0581,0.0581,0.0581,0,0,-0.019,-0.0172,-0.0171,-0.0133,-0.0076,-0.0032,-0.0027,0.0052,0.0085,0.0151,0.0208,0.0265,0.0374,0.0422,0.0462,0.0482,0.0511,0.0508,0.0453,0.0466,0.046,0.0454,0.0478,0.0476,0.0501,0.0501,0.0501,0,-0.021,-0.0202,-0.0159,-0.014,-0.0115,-0.0049,-0.0033,0.0015,0.0106,0.012,0.0157,0.0285,0.0363,0.0407,0.0422,0.047,0.0482,0.0457,0.0456,0.0451,0.0447,0.0473,0.0472,0.0497,0.0498,0.0498,0.0498,0,-0.0223,-0.0214,-0.0209,-0.017,-0.0135,-0.0112,-0.0048,-0.0017,0.003,0.0074,0.0129,0.023,0.0294,0.0336,0.0394,0.0405,0.0424,0.0448,0.0453,0.0435,0.0466,0.0465,0.0492,0.0493,0.0494,0.0495,0,0,-0.0271,-0.023,-0.0228,-0.0224,-0.0153,-0.0132,-0.0097,-0.0056,-0.0064,0.0029,0.0024,0.0154,0.0186,0.0233,0.0302,0.0324,0.0331,0.0368,0.037,0.0368,0.0356,0.0437,0.0445,0.0342,0.0341,0.0341,0.0391,0,-0.0293,-0.0286,-0.025,-0.0243,-0.0232,-0.0177,-0.0159,-0.0117,-0.0078,-0.0066,0.0015,0.0055,0.0152,0.0174,0.0211,0.0293,0.0324,0.0315,0.0395,0.0398,0.0451,0.0445,0.047,0.0523,0.0391,0.0391,0.0391,0,-0.0311,-0.0307,-0.0308,-0.0297,-0.029,-0.0274,-0.0264,-0.0238,-0.0208,-0.018,-0.0142,-0.0086,-0.0026,0.0052,0.0165,0.0148,0.0248,0.0315,0.0319,0.0417,0.0477,0.0521,0.0527,0.0668,0.0391,0.0391,0.0391,0,-0.0365,-0.0349,-0.0361,-0.035,-0.0321,-0.0323,-0.0305,-0.0277,-0.0281,-0.0261,-0.0277,-0.0202,-0.0172,-0.0059,0.0127,0.0126,0.0245,0.0262,0.0428,0.0435,0.0486,0.0499,0.0615,0.0337,0.0336,0.0336,0.0336,0,-0.0398,-0.0407,-0.0394,-0.0399,-0.0429,-0.0383,-0.0417,-0.0393,-0.0391,-0.0425,-0.0344,-0.036,-0.0202,-0.0103,0.0065,0.0258,0.0207,0.0412,0.0449,0.0463,0.0473,0.0623,0.0671,0.0338,0.0338,0.0337,0.0337,0,-0.0435,-0.0429,-0.0449,-0.0447,-0.0451,-0.0467,-0.0476,-0.0508,-0.0494,-0.0543,-0.0542,-0.0489,-0.0351,-0.015,0.0037,0.0179,0.0452,0.0455,0.0475,0.0514,0.0771,0.0813,0.0942,0.1027,0.0594,0.0596,0.0598,0,-0.0445,-0.0461,-0.0489,-0.0514,-0.0511,-0.0534,-0.0558,-0.0549,-0.0585,-0.0619,-0.0654,-0.0556,-0.0458,-0.0138,0.014,0.0444,0.0569,0.0626,0.0639,0.0789,0.0861,0.0884,0.0947,0.0675,0.0677,0.0679,0.068,0,-0.0463,-0.048,-0.0501,-0.0559,-0.0593,-0.0641,-0.0674,-0.0726,-0.0739,-0.0789,-0.0826,-0.0754,-0.0425,-0.0091,0.0338,0.0516,0.0714,0.0675,0.0812,0.092,0.0965,0.1064,0.0648,0.0697,0.0696,0.0695,0.0694,0.0693,-0.047,-0.05,-0.0541,-0.0597,-0.0649,-0.073,-0.0781,-0.0841,-0.0918,-0.0963,-0.0901,-0.0701,-0.0232,0.0363,0.0549,0.0933,0.089,0.1041,0.1074,0.108,0.1179,0.0817,0.0925,0.0924,0.0924,0.0924,0.0924,0,-0.0473,-0.0518,-0.0575,-0.0656,-0.073,-0.0743,-0.0845,-0.0903,-0.1009,-0.0936,-0.0899,-0.0291,0.0177,0.0629,0.1131,0.1321,0.1343,0.1414,0.1436,0.1479,0.1145,0.1169,0.1357,0.1357,0.1357,0.1356,0.1356,0.1356,-0.0476,-0.0538,-0.058,-0.0705,-0.0762,-0.0862,-0.0921,-0.1008,-0.0959,-0.0787,-0.0428,-0.0082,0.0551,0.1199,0.1624,0.1665,0.1819,0.1799,0.1893,0.1652,0.1619,0.1588,0.1625,0.1905,0.1905,0.2214,0.2217,0.2219]}],[{"header":{"parameterUnit":"m.s-1","parameterCategory":2,"la1":30.2991,"la2":30.254,"lo1":-89.0895,"lo2":-89.0444,"dy":0.0017,"dx":0.0017,"nx":28,"ny":28,"refTime":"2025-03-22T21:00:00:Z","depth":"2","parameterNumber":2,"parameterNumberName":"U-component_of_CURRENTS"},"data":[0,0,0,0,0,0,0,0,0,0,0,0,0,0,0,0,0,0,0,0,0,0,0,0,0,0,0,0,0,0,0,0,0,0,0,0,0,0,0,0,0,0,0,0,0,0,0,0,0,0,0,0,0,0,0,0,0,0,-0.2398,-0.2398,0,-0.2354,-0.2354,-0.2353,-0.234,-0.234,-0.2341,-0.2341,-0.227,-0.2268,-0.2265,0,0,0,0,0,0,0,0,0,0,0,0,0,-0.238,-0.238,-0.2398,-0.2398,-0.2397,-0.2355,-0.2354,-0.2353,-0.234,-0.234,-0.2341,-0.2342,-0.2271,-0.2268,-0.2265,0,0,0,0,0,0,0,0,0,0,0,0,0,-0.2364,-0.2381,-0.2398,-0.2388,-0.2387,-0.2355,-0.2354,-0.2353,-0.234,-0.234,-0.2341,-0.2342,-0.2272,-0.2268,-0.2265,-0.2228,0,0,-0.2254,-0.2252,0,0,0,0,0,0,0,0,-0.2365,-0.2365,-0.239,-0.2389,-0.2387,-0.2356,-0.2321,-0.231,-0.234,-0.2354,-0.2341,-0.2342,-0.2298,-0.2292,-0.2278,-0.2224,-0.2221,-0.2254,-0.2251,-0.225,-0.2249,0,0,0,0,0,0,0,-0.2367,-0.2366,-0.2377,-0.2389,-0.2388,-0.2355,-0.2354,-0.2319,-0.2319,-0.2353,-0.2353,-0.2353,-0.2297,-0.2282,-0.2276,-0.222,-0.2254,-0.2251,-0.2248,-0.2247,-0.2176,-0.2176,0,0,0,0,0,0,-0.2382,-0.2368,-0.2379,-0.2377,-0.2382,-0.2356,-0.2354,-0.2363,-0.232,-0.2316,-0.2352,-0.2352,-0.2287,-0.2281,-0.2274,-0.2261,-0.225,-0.2247,-0.2245,-0.2176,-0.2176,-0.2176,0,0,0,0,0,0,-0.2382,-0.2384,-0.2381,-0.2373,-0.2371,-0.2356,-0.2365,-0.2362,-0.2341,-0.2321,-0.2315,-0.2335,-0.2288,-0.2279,-0.2243,-0.2257,-0.2245,-0.2242,-0.2175,-0.2176,-0.2176,-0.2213,0,0,0,0,0,0,-0.2382,-0.2384,-0.238,-0.2374,-0.2372,-0.2373,-0.2364,-0.236,-0.2342,-0.2341,-0.2304,-0.2298,-0.2288,-0.2249,-0.224,-0.2252,-0.2239,-0.2175,-0.2175,-0.2176,-0.2212,-0.2215,-0.2217,0,0,0,0,0,-0.2381,-0.2381,-0.238,-0.2381,-0.2372,-0.2373,-0.2369,-0.2358,-0.234,-0.2339,-0.2307,-0.2299,-0.2246,-0.2245,-0.2235,-0.2246,-0.2175,-0.2175,-0.2176,-0.221,-0.2214,-0.2217,0,0,0,0,0,0,-0.2363,-0.238,-0.2379,-0.2381,-0.2382,-0.2373,-0.236,-0.2349,-0.232,-0.2309,-0.2285,-0.2278,-0.2259,-0.2239,-0.2239,-0.2229,-0.2215,-0.2214,-0.2245,-0.2248,-0.2251,-0.2276,-0.2236,0,0,0,0,0,-0.236,-0.2365,-0.2377,-0.2373,-0.2376,-0.2361,-0.2352,-0.2348,-0.2329,-0.2317,-0.229,-0.2264,-0.2252,-0.2239,-0.222,-0.2197,-0.2209,-0.2203,-0.2206,-0.2209,-0.2223,-0.2249,-0.2256,-0.2178,-0.2178,-0.2178,0,0,-0.2344,-0.2357,-0.2355,-0.2369,-0.2361,-0.2376,-0.2357,-0.2347,-0.2358,-0.2311,-0.2295,-0.2266,-0.2247,-0.2237,-0.2227,-0.2221,-0.2237,-0.221,-0.2212,-0.2225,-0.225,-0.2258,-0.2265,-0.2178,-0.2178,-0.2178,0,0,-0.233,-0.2336,-0.234,-0.2354,-0.2358,-0.2364,-0.2363,-0.2352,-0.2347,-0.2326,-0.2307,-0.2285,-0.2246,-0.225,-0.2245,-0.2247,-0.2251,-0.2239,-0.2272,-0.2297,-0.2304,-0.2311,-0.2339,-0.2348,-0.2242,-0.2242,-0.2242,0,-0.2308,-0.2329,-0.2337,-0.2356,-0.2372,-0.2364,-0.2381,-0.238,-0.2356,-0.236,-0.233,-0.2298,-0.2263,-0.2285,-0.228,-0.2257,-0.2271,-0.2261,-0.2303,-0.2309,-0.2315,-0.2343,-0.2352,-0.2244,-0.2244,-0.2243,-0.2243,0,-0.2312,-0.2328,-0.2332,-0.2367,-0.2385,-0.2393,-0.2417,-0.242,-0.2403,-0.2402,-0.24,-0.2355,-0.2339,-0.2329,-0.2295,-0.2326,-0.2323,-0.2304,-0.2298,-0.2326,-0.2352,-0.2361,-0.2247,-0.2246,-0.2245,-0.2245,0,0,-0.2257,-0.2323,-0.2321,-0.2351,-0.2395,-0.241,-0.2447,-0.2482,-0.2505,-0.2477,-0.2505,-0.2462,-0.2426,-0.2417,-0.2381,-0.2395,-0.2427,-0.2361,-0.2361,-0.2398,-0.249,-0.2267,-0.2256,-0.2416,-0.2418,-0.2419,-0.2493,0,-0.2252,-0.2295,-0.2338,-0.2381,-0.2408,-0.2452,-0.2494,-0.2526,-0.2535,-0.2558,-0.254,-0.2532,-0.2467,-0.2444,-0.245,-0.2431,-0.2451,-0.2409,-0.2451,-0.2453,-0.2257,-0.2258,-0.2088,-0.2119,-0.2502,-0.2503,-0.2504,0,-0.2237,-0.2276,-0.2309,-0.2409,-0.2425,-0.2448,-0.2526,-0.2562,-0.2614,-0.2623,-0.2628,-0.2608,-0.2609,-0.2546,-0.2558,-0.2533,-0.2511,-0.2506,-0.2508,-0.2294,-0.2244,-0.2151,-0.212,-0.2519,-0.2518,-0.2517,-0.2516,0,-0.218,-0.2263,-0.2287,-0.2314,-0.241,-0.2435,-0.2487,-0.2554,-0.2598,-0.2645,-0.2667,-0.2684,-0.2656,-0.2667,-0.2556,-0.259,-0.2557,-0.2612,-0.2414,-0.24,-0.2258,-0.2225,-0.2643,-0.2642,-0.2642,-0.2642,-0.2642,0,-0.2159,-0.2175,-0.2253,-0.2259,-0.2309,-0.2391,-0.2447,-0.2503,-0.2589,-0.26,-0.2662,-0.2636,-0.2678,-0.263,-0.2598,-0.2466,-0.2578,-0.2418,-0.2395,-0.2261,-0.2229,-0.2575,-0.2567,-0.2645,-0.2644,-0.2644,-0.2643,0,-0.2059,-0.2114,-0.2142,-0.2234,-0.2267,-0.2282,-0.2417,-0.2468,-0.2546,-0.2563,-0.2572,-0.2617,-0.2535,-0.2531,-0.2512,-0.2464,-0.2403,-0.2324,-0.214,-0.209,-0.2265,-0.2258,-0.224,-0.2233,-0.2227,-0.2221,-0.2217,0,-0.1993,-0.1995,-0.2082,-0.2097,-0.2121,-0.2188,-0.2251,-0.24,-0.2448,-0.2481,-0.247,-0.243,-0.2308,-0.2215,-0.2129,-0.2066,-0.2172,-0.1892,-0.1921,-0.224,-0.2221,-0.2223,-0.2224,-0.1786,-0.1778,-0.1772,-0.1767,0,-0.1853,-0.1876,-0.1897,-0.1948,-0.1995,-0.21,-0.2182,-0.219,-0.23,-0.2311,-0.2204,-0.2108,-0.1997,-0.1806,-0.1708,-0.1663,-0.1901,-0.1761,-0.2148,-0.1861,-0.1801,-0.1785,-0.1804,-0.1712,-0.1717,-0.1721,-0.1724,-0.1727,-0.1699,-0.1693,-0.1725,-0.1763,-0.1851,-0.1908,-0.1899,-0.1971,-0.1964,-0.1879,-0.1876,-0.1699,-0.1676,-0.1428,-0.132,-0.1299,-0.1478,-0.1494,-0.1519,-0.155,-0.143,-0.1356,-0.1165,-0.1167,-0.1169,-0.1171,-0.1172,0,-0.152,-0.1527,-0.1554,-0.1615,-0.1682,-0.1784,-0.1796,-0.1739,-0.1602,-0.1577,-0.1461,-0.123,-0.1074,-0.1076,-0.0944,-0.0927,-0.1003,-0.0916,-0.1038,-0.1089,-0.1137,-0.1003,-0.0622,-0.062,-0.0619,-0.0618,0,0,-0.1411,-0.1373,-0.1414,-0.1422,-0.1479,-0.1451,-0.1391,-0.1301,-0.1229,-0.1056,-0.0987,-0.101,-0.101,-0.0808,-0.0763,-0.0665,-0.0882,-0.0633,-0.1069,-0.126,-0.1306,-0.1451,-0.1297,0,0,0,0,0]},{"header":{"parameterUnit":"m.s-1","parameterCategory":2,"la1":30.2991,"la2":30.254,"lo1":-89.0895,"lo2":-89.0444,"dy":0.0017,"dx":0.0017,"nx":28,"ny":28,"refTime":"2025-03-22T21:00:00:Z","depth":"2","parameterNumber":3,"parameterNumberName":"V-component_of_CURRENTS"},"data":[0,0,0,0,0,0,0,0,0,0,0,0,0,0,0,0,0,0,0,0,0,0,0,0,0,0,0,0,0,0,0,0,0,0,0,0,0,0,0,0,0,0,0,0,0,0,0,0,0,0,0,0,0,0,0,0,0,0,-0.0509,-0.0508,0,-0.037,-0.0368,-0.0367,-0.0333,-0.0334,-0.0335,-0.0336,-0.0215,-0.0211,-0.0207,0,0,0,0,0,0,0,0,0,0,0,0,0,-0.0614,-0.0613,-0.0509,-0.0508,-0.0506,-0.037,-0.0368,-0.0366,-0.0333,-0.0334,-0.0335,-0.0336,-0.0216,-0.0212,-0.0207,0,0,0,0,0,0,0,0,0,0,0,0,0,-0.053,-0.0613,-0.051,-0.0474,-0.0469,-0.0371,-0.0368,-0.0366,-0.0332,-0.0334,-0.0336,-0.0337,-0.0218,-0.0212,-0.0206,-0.0136,0,0,-0.0187,-0.0184,0,0,0,0,0,0,0,0,-0.0535,-0.0526,-0.0481,-0.0476,-0.0471,-0.0372,-0.0361,-0.029,-0.0332,-0.0383,-0.0336,-0.0338,-0.0269,-0.0258,-0.0227,-0.0131,-0.0125,-0.0186,-0.0182,-0.018,-0.0178,0,0,0,0,0,0,0,-0.0541,-0.0531,-0.0453,-0.0479,-0.0473,-0.042,-0.0411,-0.0347,-0.0318,-0.0379,-0.0376,-0.0362,-0.0266,-0.0233,-0.0224,-0.0124,-0.0186,-0.0181,-0.0177,-0.0174,0.0004,0.0005,0,0,0,0,0,0,-0.0566,-0.0537,-0.0457,-0.0449,-0.0509,-0.0417,-0.0407,-0.0401,-0.0318,-0.0308,-0.0361,-0.0361,-0.0243,-0.0231,-0.0219,-0.0165,-0.018,-0.0174,-0.017,0.0003,0.0004,0.0005,0,0,0,0,0,0,-0.0569,-0.056,-0.0463,-0.049,-0.0475,-0.0415,-0.0408,-0.0397,-0.0381,-0.0305,-0.0295,-0.0358,-0.0244,-0.0228,-0.0176,-0.0159,-0.0171,-0.0165,0.0002,0.0003,0.0005,-0.0035,0,0,0,0,0,0,-0.0572,-0.0562,-0.0571,-0.0493,-0.0474,-0.0419,-0.0406,-0.0394,-0.0369,-0.0369,-0.0298,-0.0287,-0.0244,-0.0186,-0.017,-0.0151,-0.016,0.0001,0.0003,0.0004,-0.0035,-0.0035,-0.0035,0,0,0,0,0,-0.0577,-0.0581,-0.0572,-0.0563,-0.0487,-0.0419,-0.0404,-0.0365,-0.0368,-0.0357,-0.0314,-0.0291,-0.0163,-0.018,-0.0162,-0.014,-0.0,0.0002,0.0004,-0.0035,-0.0035,-0.0035,0,0,0,0,0,0,-0.0632,-0.0575,-0.0565,-0.0554,-0.0499,-0.0414,-0.0399,-0.0373,-0.0327,-0.0333,-0.0274,-0.0259,-0.0205,-0.0166,-0.0186,-0.0083,-0.0078,-0.0072,-0.0114,-0.0114,-0.0114,-0.0117,-0.0155,0,0,0,0,0,-0.0649,-0.0641,-0.0571,-0.0565,-0.0539,-0.0473,-0.0444,-0.0415,-0.036,-0.0343,-0.0294,-0.0238,-0.0174,-0.0145,-0.0085,-0.0027,0.0004,-0.0001,-0.0001,-0.0002,0.0009,0.0065,0.0071,0.0013,0.0012,0.0012,0,0,-0.0673,-0.0638,-0.0637,-0.0577,-0.0531,-0.0487,-0.046,-0.0419,-0.0382,-0.0334,-0.0284,-0.0236,-0.0159,-0.0095,-0.0068,-0.0066,0.0028,0.0001,-0.0,0.0012,0.0068,0.0074,0.0078,0.0014,0.0014,0.0013,0,0,-0.0698,-0.068,-0.0674,-0.0629,-0.0566,-0.0512,-0.0508,-0.043,-0.04,-0.0341,-0.0296,-0.0233,-0.0153,-0.0079,-0.0034,0.0007,0.0025,0.0007,0.0008,0.0061,0.0066,0.0071,0.0096,0.0104,0.0007,0.0007,0.0007,0,-0.0729,-0.0711,-0.0661,-0.0631,-0.0597,-0.0529,-0.0501,-0.0444,-0.0364,-0.0332,-0.0338,-0.0196,-0.0131,-0.0029,-0.0018,0.001,0.0017,-0.0003,0.0059,0.0065,0.0071,0.0096,0.0105,0.0005,0.0005,0.0006,0.0006,0,-0.0733,-0.0722,-0.0711,-0.0654,-0.0605,-0.0573,-0.0485,-0.0443,-0.0406,-0.0349,-0.0265,-0.0176,-0.0097,-0.0062,-0.0025,0.0053,0.0035,0.0049,0.0053,0.0074,0.0099,0.0109,0.0003,0.0003,0.0004,0.0004,0,0,-0.0795,-0.0731,-0.0729,-0.0713,-0.0618,-0.0578,-0.0508,-0.042,-0.0385,-0.0309,-0.0263,-0.0127,-0.0102,-0.0048,0.0008,0.0067,0.0117,0.006,0.0063,0.0073,0.0195,0.0215,0.0228,0.0116,0.0118,0.0119,0.0188,0,-0.0816,-0.079,-0.0735,-0.0702,-0.0678,-0.059,-0.0528,-0.0442,-0.0375,-0.0316,-0.021,-0.0152,-0.009,-0.0075,0.0003,0.0078,0.0142,0.0095,0.0186,0.0189,0.0195,0.0241,0.0221,0.0283,0.0198,0.02,0.0201,0,-0.083,-0.0814,-0.0795,-0.0731,-0.071,-0.0677,-0.0577,-0.0517,-0.0401,-0.0355,-0.0271,-0.0211,-0.0101,-0.0072,0.0093,0.004,0.0121,0.0187,0.0191,0.0236,0.0229,0.0256,0.0305,0.0218,0.0216,0.0215,0.0214,0,-0.0896,-0.085,-0.0844,-0.0822,-0.0735,-0.0711,-0.0662,-0.0544,-0.0494,-0.0405,-0.0384,-0.0245,-0.0209,-0.0075,0.0077,0.0062,0.024,0.0239,0.0348,0.0348,0.0369,0.0368,0.0374,0.0373,0.0373,0.0373,0.0373,0,-0.0934,-0.0927,-0.0889,-0.0888,-0.0873,-0.0789,-0.0754,-0.0682,-0.0591,-0.053,-0.0435,-0.0366,-0.0216,-0.0091,0.0054,0.0232,0.0229,0.0366,0.0382,0.0352,0.035,0.0327,0.0321,0.0376,0.0375,0.0375,0.0374,0,-0.0993,-0.0969,-0.0965,-0.0919,-0.0908,-0.0904,-0.0832,-0.0797,-0.0718,-0.0645,-0.0632,-0.0483,-0.0326,-0.0148,0.0063,0.0187,0.0367,0.0439,0.0382,0.0392,0.0435,0.0426,0.0543,0.0545,0.0546,0.0547,0.0548,0,-0.1009,-0.1022,-0.1014,-0.1023,-0.1011,-0.0994,-0.0967,-0.0876,-0.0826,-0.0682,-0.0649,-0.0513,-0.0366,-0.0072,0.0157,0.0398,0.0419,0.0513,0.0517,0.0456,0.046,0.0448,0.0438,0.0514,0.0515,0.0516,0.0516,0,-0.1039,-0.1051,-0.1054,-0.1092,-0.1094,-0.1079,-0.104,-0.0997,-0.0866,-0.0803,-0.0652,-0.054,-0.0273,-0.0019,0.0258,0.0408,0.0466,0.0531,0.0504,0.0474,0.0435,0.0436,0.0426,0.052,0.052,0.052,0.0519,0.0519,-0.1051,-0.1079,-0.1103,-0.1138,-0.1153,-0.1134,-0.1095,-0.1017,-0.0928,-0.0756,-0.0646,-0.0447,-0.0241,0.0162,0.036,0.0534,0.0536,0.0593,0.0589,0.0585,0.0569,0.0535,0.0634,0.0634,0.0634,0.0635,0.0635,0,-0.1054,-0.1089,-0.1135,-0.1171,-0.121,-0.1204,-0.1113,-0.1036,-0.0909,-0.0732,-0.0578,-0.0319,-0.0041,0.0179,0.046,0.0616,0.0595,0.0635,0.0583,0.0578,0.0574,0.0556,0.0619,0.0619,0.0619,0.0619,0,0,-0.1049,-0.1099,-0.1146,-0.1215,-0.1245,-0.1211,-0.1147,-0.1023,-0.0856,-0.0662,-0.0493,-0.0271,-0.0008,0.0187,0.0371,0.0509,0.0501,0.0515,0.0516,0.0428,0.0422,0.0541,0.0507,0,0,0,0,0]}],[{"header":{"parameterUnit":"m.s-1","parameterCategory":2,"la1":30.2991,"la2":30.254,"lo1":-89.0895,"lo2":-89.0444,"dy":0.0017,"dx":0.0017,"nx":28,"ny":28,"refTime":"2025-03-22T21:00:00:Z","depth":"4","parameterNumber":2,"parameterNumberName":"U-component_of_CURRENTS"},"data":[0,0,0,0,0,0,0,0,0,0,0,0,0,0,0,0,0,0,0,0,0,0,0,0,0,0,0,0,0,0,0,0,0,0,0,0,0,0,0,0,0,0,0,0,0,0,0,0,0,0,0,0,0,0,0,0,0,0,-0.0853,-0.0853,0,-0.0946,-0.0948,-0.095,-0.1082,-0.1083,-0.1085,-0.1086,-0.1203,-0.1205,-0.1207,0,0,0,0,0,0,0,0,0,0,0,0,0,-0.0765,-0.0767,-0.0853,-0.0853,-0.0853,-0.0945,-0.0948,-0.095,-0.1082,-0.1083,-0.1085,-0.1086,-0.1203,-0.1205,-0.1207,0,0,0,0,0,0,0,0,0,0,0,0,0,-0.0835,-0.0768,-0.0853,-0.0922,-0.0929,-0.0945,-0.0948,-0.0951,-0.1082,-0.1084,-0.1085,-0.1087,-0.1202,-0.1205,-0.1208,-0.1187,0,0,-0.1216,-0.1218,0,0,0,0,0,0,0,0,-0.0831,-0.084,-0.0912,-0.0917,-0.0924,-0.0995,-0.0959,-0.1027,-0.1081,-0.1035,-0.1086,-0.1088,-0.1127,-0.1136,-0.1165,-0.1192,-0.1197,-0.1217,-0.1218,-0.122,-0.122,0,0,0,0,0,0,0,-0.0826,-0.0836,-0.0901,-0.0912,-0.0919,-0.0939,-0.0953,-0.0973,-0.1078,-0.1039,-0.1046,-0.1039,-0.1133,-0.1162,-0.1168,-0.1199,-0.1217,-0.1219,-0.1221,-0.1222,-0.1346,-0.1347,0,0,0,0,0,0,-0.0792,-0.0832,-0.0898,-0.0903,-0.0869,-0.0938,-0.0954,-0.0979,-0.1078,-0.1091,-0.1037,-0.1044,-0.1156,-0.1165,-0.1173,-0.1259,-0.122,-0.1222,-0.1224,-0.1344,-0.1346,-0.1348,0,0,0,0,0,0,-0.0791,-0.0799,-0.0894,-0.0858,-0.0871,-0.0937,-0.0964,-0.098,-0.1008,-0.1073,-0.109,-0.1048,-0.1158,-0.1169,-0.1194,-0.126,-0.1224,-0.1226,-0.1342,-0.1345,-0.1347,-0.1363,0,0,0,0,0,0,-0.0789,-0.0799,-0.0821,-0.0857,-0.0871,-0.0945,-0.0962,-0.098,-0.0995,-0.1006,-0.1088,-0.1102,-0.116,-0.1189,-0.1196,-0.1264,-0.1229,-0.134,-0.1343,-0.1346,-0.1361,-0.1366,-0.137,0,0,0,0,0,-0.0786,-0.0796,-0.0822,-0.083,-0.0896,-0.0945,-0.0958,-0.1016,-0.0993,-0.104,-0.1057,-0.1099,-0.1216,-0.119,-0.1199,-0.127,-0.1339,-0.1342,-0.1346,-0.1359,-0.1365,-0.137,0,0,0,0,0,0,-0.0762,-0.081,-0.084,-0.0866,-0.092,-0.0965,-0.0986,-0.0996,-0.1043,-0.1054,-0.1084,-0.11,-0.1158,-0.1191,-0.1161,-0.1316,-0.1298,-0.1303,-0.1305,-0.1311,-0.1315,-0.131,-0.1231,0,0,0,0,0,-0.0763,-0.0795,-0.0846,-0.0869,-0.0889,-0.0927,-0.0946,-0.1,-0.1028,-0.1053,-0.11,-0.1147,-0.1179,-0.122,-0.1271,-0.1324,-0.132,-0.1386,-0.1391,-0.1395,-0.1398,-0.1418,-0.1425,-0.1359,-0.1359,-0.1359,0,0,-0.076,-0.0783,-0.0806,-0.0867,-0.0902,-0.0949,-0.0949,-0.1001,-0.1048,-0.1053,-0.1126,-0.1152,-0.1188,-0.1273,-0.1307,-0.1311,-0.141,-0.1399,-0.1402,-0.1403,-0.1423,-0.1429,-0.1434,-0.1361,-0.1361,-0.1361,0,0,-0.0769,-0.0789,-0.0836,-0.0881,-0.0944,-0.0965,-0.0968,-0.1039,-0.1089,-0.1154,-0.1157,-0.1198,-0.1285,-0.1326,-0.1345,-0.139,-0.1417,-0.1437,-0.1478,-0.1499,-0.1504,-0.1508,-0.1497,-0.15,-0.146,-0.146,-0.146,0,-0.0765,-0.0815,-0.0856,-0.0912,-0.0925,-0.0958,-0.1004,-0.1058,-0.1138,-0.1177,-0.1201,-0.1288,-0.1314,-0.1357,-0.1395,-0.1404,-0.1409,-0.145,-0.1503,-0.1507,-0.1511,-0.1499,-0.1502,-0.1462,-0.1461,-0.1461,-0.1461,0,-0.0826,-0.0863,-0.0875,-0.0951,-0.0995,-0.1025,-0.1095,-0.1163,-0.1197,-0.126,-0.1342,-0.1373,-0.1442,-0.1457,-0.1441,-0.1494,-0.1483,-0.1485,-0.1481,-0.1518,-0.1504,-0.1507,-0.1463,-0.1463,-0.1463,-0.1462,0,0,-0.0789,-0.0896,-0.0907,-0.094,-0.1006,-0.1048,-0.1121,-0.1198,-0.1237,-0.1362,-0.1425,-0.1479,-0.152,-0.1539,-0.1536,-0.1544,-0.1561,-0.1539,-0.1539,-0.1515,-0.1592,-0.1502,-0.1496,-0.158,-0.1581,-0.1582,-0.1563,0,-0.0804,-0.0884,-0.0953,-0.1014,-0.102,-0.1098,-0.116,-0.1261,-0.1322,-0.1415,-0.148,-0.1543,-0.1545,-0.1576,-0.1596,-0.1552,-0.1574,-0.1565,-0.1571,-0.157,-0.1476,-0.1499,-0.1586,-0.1565,-0.1566,-0.1566,-0.1567,0,-0.083,-0.085,-0.0938,-0.1001,-0.1027,-0.1119,-0.1195,-0.127,-0.1401,-0.1461,-0.1558,-0.1607,-0.165,-0.1648,-0.1645,-0.1644,-0.1639,-0.1603,-0.1603,-0.1515,-0.1487,-0.1527,-0.1572,-0.1572,-0.1572,-0.1571,-0.1571,0,-0.0747,-0.0829,-0.0886,-0.0917,-0.1029,-0.1129,-0.1195,-0.1314,-0.136,-0.1501,-0.155,-0.1634,-0.1677,-0.1686,-0.1678,-0.1664,-0.166,-0.1636,-0.1551,-0.1544,-0.1621,-0.1617,-0.1659,-0.1659,-0.1659,-0.1659,-0.1659,0,-0.0702,-0.0738,-0.0878,-0.0928,-0.0972,-0.111,-0.1195,-0.1279,-0.1406,-0.147,-0.1588,-0.1631,-0.169,-0.1719,-0.1701,-0.1639,-0.1703,-0.1552,-0.1538,-0.1627,-0.1624,-0.1622,-0.1618,-0.1658,-0.1659,-0.1659,-0.1659,0,-0.0642,-0.0734,-0.08,-0.0944,-0.096,-0.1041,-0.1161,-0.1218,-0.1351,-0.1438,-0.1493,-0.1626,-0.165,-0.1687,-0.1682,-0.1642,-0.1597,-0.1578,-0.1669,-0.166,-0.1452,-0.1449,-0.1434,-0.1431,-0.1428,-0.1426,-0.1424,0,-0.0615,-0.0654,-0.0793,-0.0799,-0.0892,-0.0971,-0.1006,-0.1167,-0.1238,-0.1418,-0.1475,-0.156,-0.1633,-0.1548,-0.1595,-0.1558,-0.1551,-0.1524,-0.1479,-0.1443,-0.1432,-0.1433,-0.1434,-0.142,-0.1419,-0.1418,-0.1418,0,-0.0528,-0.0647,-0.0719,-0.0725,-0.0801,-0.0824,-0.0934,-0.0969,-0.1189,-0.128,-0.1397,-0.1439,-0.1475,-0.1479,-0.1483,-0.1461,-0.1523,-0.1494,-0.1498,-0.1455,-0.1426,-0.1417,-0.1421,-0.1408,-0.1409,-0.141,-0.1411,0,-0.0484,-0.0515,-0.0631,-0.0645,-0.0675,-0.0729,-0.0788,-0.0903,-0.1001,-0.1245,-0.1269,-0.1379,-0.147,-0.1431,-0.1437,-0.1404,-0.1356,-0.1298,-0.1311,-0.1322,-0.1296,-0.1242,-0.1153,0,0,0,0,0,-0.0437,-0.0456,-0.0469,-0.0557,-0.059,-0.0628,-0.0743,-0.084,-0.1045,-0.1085,-0.1187,-0.1231,-0.1254,-0.1304,-0.1238,-0.1357,-0.1349,-0.1274,-0.1287,-0.1355,-0.1366,-0.1347,0,0,0,0,0,0,-0.0404,-0.0421,-0.0465,-0.0469,-0.0485,-0.0564,-0.0654,-0.0796,-0.0846,-0.1015,-0.1024,-0.1131,-0.1154,-0.1255,-0.1201,-0.1212,-0.119,-0.133,-0.1326,-0.1349,-0.1359,-0.1368,-0.1352,0,0,0,0,0]},{"header":{"parameterUnit":"m.s-1","parameterCategory":2,"la1":30.2991,"la2":30.254,"lo1":-89.0895,"lo2":-89.0444,"dy":0.0017,"dx":0.0017,"nx":28,"ny":28,"refTime":"2025-03-22T21:00:00:Z","depth":"4","parameterNumber":3,"parameterNumberName":"V-component_of_CURRENTS"},"data":[0,0,0,0,0,0,0,0,0,0,0,0,0,0,0,0,0,0,0,0,0,0,0,0,0,0,0,0,0,0,0,0,0,0,0,0,0,0,0,0,0,0,0,0,0,0,0,0,0,0,0,0,0,0,0,0,0,0,-0.0314,-0.0314,0,-0.0315,-0.0315,-0.0315,-0.0297,-0.0297,-0.0296,-0.0296,-0.0203,-0.0201,-0.0199,0,0,0,0,0,0,0,0,0,0,0,0,0,-0.0261,-0.0262,-0.0314,-0.0314,-0.0314,-0.0315,-0.0315,-0.0315,-0.0297,-0.0297,-0.0296,-0.0295,-0.0203,-0.0201,-0.0199,0,0,0,0,0,0,0,0,0,0,0,0,0,-0.0276,-0.0263,-0.0314,-0.0305,-0.0304,-0.0315,-0.0315,-0.0315,-0.0297,-0.0297,-0.0296,-0.0295,-0.0204,-0.0201,-0.0198,-0.0196,0,0,-0.0189,-0.0188,0,0,0,0,0,0,0,0,-0.0275,-0.0278,-0.0306,-0.0306,-0.0305,-0.0304,-0.0262,-0.027,-0.0298,-0.0301,-0.0296,-0.0295,-0.0228,-0.0223,-0.0227,-0.0191,-0.0187,-0.0189,-0.0187,-0.0186,-0.0185,0,0,0,0,0,0,0,-0.0274,-0.0277,-0.0315,-0.0306,-0.0305,-0.0288,-0.029,-0.0264,-0.0268,-0.03,-0.0299,-0.0298,-0.0227,-0.023,-0.0225,-0.0186,-0.0189,-0.0186,-0.0184,-0.0183,-0.0117,-0.0117,0,0,0,0,0,0,-0.0276,-0.0277,-0.0315,-0.0315,-0.0287,-0.029,-0.0292,-0.0306,-0.027,-0.0264,-0.0299,-0.0297,-0.0236,-0.0228,-0.0221,-0.0204,-0.0186,-0.0183,-0.0181,-0.0117,-0.0117,-0.0117,0,0,0,0,0,0,-0.0275,-0.028,-0.0315,-0.0294,-0.0297,-0.0292,-0.0308,-0.0306,-0.0319,-0.027,-0.0262,-0.0313,-0.0235,-0.0225,-0.0217,-0.02,-0.0182,-0.0179,-0.0117,-0.0117,-0.0117,-0.0176,0,0,0,0,0,0,-0.0274,-0.028,-0.0302,-0.0295,-0.0299,-0.0325,-0.0308,-0.0307,-0.0318,-0.0317,-0.0279,-0.027,-0.0234,-0.0222,-0.0214,-0.0195,-0.0177,-0.0117,-0.0117,-0.0117,-0.0174,-0.0178,-0.0181,0,0,0,0,0,-0.0272,-0.0297,-0.0304,-0.0308,-0.0326,-0.0326,-0.0326,-0.0319,-0.032,-0.0328,-0.0313,-0.0271,-0.0215,-0.0221,-0.0212,-0.0191,-0.0117,-0.0117,-0.0117,-0.0172,-0.0177,-0.0181,0,0,0,0,0,0,-0.0282,-0.0298,-0.0304,-0.0334,-0.0333,-0.0322,-0.033,-0.0332,-0.033,-0.0326,-0.0289,-0.0279,-0.0263,-0.0226,-0.0233,-0.0171,-0.0152,-0.015,-0.0196,-0.0201,-0.0204,-0.0192,-0.0174,0,0,0,0,0,-0.0297,-0.0324,-0.0326,-0.035,-0.0349,-0.0347,-0.0351,-0.0344,-0.0336,-0.0336,-0.0312,-0.0279,-0.0255,-0.0231,-0.0204,-0.0179,-0.0124,-0.0153,-0.0157,-0.0161,-0.0144,-0.006,-0.0055,-0.0118,-0.0118,-0.0118,0,0,-0.031,-0.032,-0.0338,-0.0355,-0.0352,-0.0361,-0.0347,-0.035,-0.0355,-0.0323,-0.0325,-0.0302,-0.0257,-0.0231,-0.0216,-0.0196,-0.0118,-0.0161,-0.0164,-0.0145,-0.006,-0.0053,-0.0048,-0.0118,-0.0118,-0.0118,0,0,-0.0334,-0.0353,-0.0379,-0.0379,-0.0379,-0.0376,-0.0383,-0.0377,-0.0371,-0.0373,-0.0349,-0.0326,-0.0288,-0.0249,-0.0225,-0.0233,-0.0153,-0.0214,-0.0206,-0.0126,-0.012,-0.0114,-0.0055,-0.0043,-0.02,-0.02,-0.02,0,-0.0345,-0.0384,-0.0384,-0.0395,-0.04,-0.0389,-0.0404,-0.0397,-0.0391,-0.0375,-0.0375,-0.0315,-0.0292,-0.0242,-0.0247,-0.0239,-0.0182,-0.0197,-0.013,-0.0123,-0.0115,-0.0056,-0.0042,-0.0203,-0.0203,-0.0202,-0.0202,0,-0.0376,-0.0411,-0.0418,-0.0439,-0.0441,-0.0451,-0.0435,-0.0437,-0.0431,-0.0406,-0.0367,-0.0335,-0.0283,-0.0277,-0.0267,-0.0198,-0.0174,-0.0159,-0.012,-0.0112,-0.0051,-0.0035,-0.0207,-0.0206,-0.0205,-0.0204,0,0,-0.0389,-0.0438,-0.0441,-0.0463,-0.0466,-0.0468,-0.0472,-0.0459,-0.0448,-0.0414,-0.0375,-0.0343,-0.0297,-0.0267,-0.0235,-0.0173,-0.0099,-0.0141,-0.0136,-0.0084,0.0078,0.0027,0.004,-0.0062,-0.006,-0.0057,0.0092,0,-0.0416,-0.0464,-0.0475,-0.0515,-0.0535,-0.0525,-0.0523,-0.0499,-0.0474,-0.0427,-0.0354,-0.0309,-0.0296,-0.0268,-0.0199,-0.0127,-0.0055,-0.0141,0.0066,0.0071,0.0025,0.0057,-0.0048,0.0105,0.0108,0.0111,0.0113,0,-0.0438,-0.047,-0.0523,-0.0556,-0.056,-0.058,-0.057,-0.0561,-0.0483,-0.0449,-0.0368,-0.0304,-0.0207,-0.0199,-0.0031,-0.008,0.0002,0.0058,0.0066,0.0057,0.0051,0.0103,0.0143,0.014,0.0138,0.0136,0.0134,0,-0.0445,-0.0501,-0.0552,-0.0563,-0.0591,-0.061,-0.0614,-0.0568,-0.0541,-0.0451,-0.0404,-0.0275,-0.02,-0.0075,0.0028,0.002,0.0211,0.0219,0.0256,0.0253,0.0279,0.0272,0.0357,0.0357,0.0357,0.0356,0.0356,0,-0.0466,-0.0506,-0.0569,-0.0593,-0.0631,-0.0629,-0.0637,-0.062,-0.0553,-0.0495,-0.0402,-0.0325,-0.0161,-0.0039,0.0059,0.0198,0.0247,0.0273,0.0298,0.0247,0.0234,0.029,0.028,0.0362,0.0361,0.0359,0.0358,0,-0.0471,-0.0517,-0.0581,-0.0633,-0.0645,-0.0669,-0.067,-0.0653,-0.0597,-0.0518,-0.048,-0.0329,-0.0179,-0.004,0.0157,0.0228,0.0357,0.0393,0.0315,0.0331,0.0345,0.0331,0.0481,0.0481,0.0481,0.048,0.048,0,-0.0479,-0.0516,-0.0605,-0.0634,-0.067,-0.0698,-0.0697,-0.0674,-0.0642,-0.0523,-0.0466,-0.0315,-0.0209,0.0041,0.0168,0.0358,0.037,0.0444,0.041,0.0354,0.0363,0.0349,0.0335,0.048,0.048,0.048,0.0479,0,-0.0483,-0.0531,-0.058,-0.0641,-0.0681,-0.0708,-0.0708,-0.0689,-0.0628,-0.058,-0.0432,-0.0297,-0.0128,0.0046,0.0177,0.0309,0.0399,0.0441,0.0443,0.0413,0.0354,0.036,0.0347,0.0479,0.0479,0.0479,0.0479,0,-0.0478,-0.0519,-0.0581,-0.0633,-0.0681,-0.0698,-0.0711,-0.0657,-0.0621,-0.0495,-0.0449,-0.0274,-0.0162,0.0023,0.0145,0.026,0.0298,0.034,0.0348,0.0351,0.0245,0.0145,0.0247,0,0,0,0,0,-0.046,-0.0491,-0.0546,-0.062,-0.067,-0.0695,-0.069,-0.0687,-0.064,-0.0537,-0.049,-0.0339,-0.0127,-0.0026,0.0085,0.0125,0.0298,0.0257,0.0344,0.0473,0.0474,0.0365,0,0,0,0,0,0,-0.0447,-0.0493,-0.0536,-0.0588,-0.0629,-0.0677,-0.0684,-0.0661,-0.0594,-0.0527,-0.0412,-0.0326,-0.0125,-0.0196,0.0082,0.0118,0.0187,0.0362,0.0364,0.0472,0.0474,0.0474,0.0362,0,0,0,0,0]}]]